Home > Weather > Moreno Valley > Past weeks

Flag for U.S.A. Weather for the Past 2 Weeks in Moreno Valley, California, U.S.A.

Now
78 °F

Sunny.


Feels Like: 77 °F
Forecast: 48 / 81 °F
Wind: No wind

Location: Riverside / March Air Force Base

Current Time: Feb 13, 2016 at 2:13:43 PM

Latest Report: Feb 13, 2016 at 12:58 PM


Visibility: 10 mi

Pressure: 30.03 "Hg

Humidity: 16%

Dew point: 29 °F

Location of Moreno ValleyLocation

Historic Weather in Moreno Valley — Graph

°F

Moreno Valley Temperature Yesterday

Maximum temperature yesterday: 84 °F (at 2:58 PM)
Minimum temperature yesterday: 37 °F (at 5:58 AM)
Average temperature yesterday: 59 °F

High & Low Weather Summary for the Past Weeks

 TemperatureHumidityPressure
High85 °F (Feb 10, 1:58 PM)100% (Jan 30, 6:58 PM)30.37 "Hg (Jan 30, 6:58 PM)
Low28 °F (Feb 2, 5:58 AM)6% (Feb 12, 1:58 PM)29.59 "Hg (Jan 31, 2:58 PM)
Average56 °F42%30.12 "Hg
* Reported Jan 29 12:58 PM — Feb 13 12:58 PM, Moreno Valley, Weather by CustomWeather, © 2016

Note: Actual official high and low records may vary slightly from our data, if they occured in-between our weather recording intervals... More about our weather records

Advertising

Moreno Valley Weather History for the Previous 24 Hours

 ConditionsComfort  
Time TempWeatherWind HumidityBarometerVisibility
12:58 PM
Sat, Feb 13
78 °FSunny.No wind16%30.03 "Hg10 mi
11:58 AM74 °FSunny.2 mph20%30.05 "Hg10 mi
10:58 AM69 °FPassing clouds.No wind23%30.10 "Hg10 mi
9:58 AM65 °FSunny.3 mph28%30.11 "Hg10 mi
8:58 AM58 °FSunny.5 mph41%30.11 "Hg10 mi
7:58 AM49 °FSunny.No wind60%30.11 "Hg10 mi
6:58 AM37 °FSunny.No wind80%30.12 "Hg6 mi
5:58 AM38 °FClear.No wind78%30.10 "Hg8 mi
4:58 AM40 °FClear.No wind75%30.09 "Hg7 mi
3:58 AM39 °FClear.No wind78%30.08 "Hg7 mi
2:58 AM43 °FClear.No wind69%30.08 "Hg10 mi
1:58 AM42 °FClear.No wind72%30.09 "Hg8 mi
12:58 AM44 °FClear.No wind70%30.09 "Hg7 mi
11:58 PM
Fri, Feb 12
46 °FClear.No wind66%30.09 "Hg7 mi
10:58 PM46 °FClear.No wind66%30.09 "Hg7 mi
9:58 PM54 °FClear.No wind53%30.09 "Hg8 mi
8:58 PM56 °FClear.No wind50%30.09 "Hg8 mi
7:58 PM54 °FClear.No wind52%30.09 "Hg10 mi
6:58 PM62 °FClear.3 mph37%30.09 "Hg10 mi
5:58 PM70 °FClear.3 mph26%30.06 "Hg10 mi
4:58 PM78 °FSunny.8 mph19%30.05 "Hg10 mi
3:58 PM84 °FSunny.5 mph8%30.03 "Hg10 mi
2:58 PM84 °FSunny.2 mph7%30.03 "Hg10 mi
Weather by CustomWeather, © 2016

See weather overviewHow to use our weather pages